Weather History for Jacksonville Craig, FL

Change the Weather History Date:

Saturday, January 11, 2014

  Actual Average Record
Temperature  
Mean Temperature 72 °F -  
Max Temperature 81 °F 63 °F 82 °F (2013)
Min Temperature 64 °F 42 °F 32 °F (2004)
Cooling Degree Days 8    
Growing Degree Days 22 (Base 50)    
Moisture  
Dew Point 64 °F    
Average Humidity 84    
Maximum Humidity 93    
Minimum Humidity 58    
Precipitation  
Precipitation 0.77 in - - ()
Sea Level Pressure  
Sea Level Pressure 29.95 in    
Wind  
Wind Speed 10 mph (SW)    
Max Wind Speed 25 mph    
Max Gust Speed 36 mph    
Visibility 8 miles    
Events Rain , Thunderstorm    
Averages and records for this station are not official NWS values.
T = Trace of Precipitation, MM = Missing Value Source: NWS Daily Summary

Daily Weather History Graph

Daily Weather History Graph

Search for Another Location

Airport:

Trip Planner

Search our weather history database for the weather conditions in past years. The results will help you decide how hot, cold, wet, or windy it might be!

Date:

Astronomy

Jan. 11, 2014 Rise Set
Actual Time 7:23 AM EST 5:44 PM EST
Civil Twilight 6:57 AM EST 6:10 PM EST
Nautical Twilight 6:28 AM EST 6:40 PM EST
Astronomical Twilight 5:59 AM EST 7:09 PM EST
Moon 2:24 PM EST (1/11) 3:30 AM EST (1/11)
Length of Visible Light 11h 12m
Length of Day
10h 20m
Waxing Gibbous, 83% of the Moon is Illuminated
Jan 11
Waxing Gibbous
Jan 15
Full
Jan 24
Last Quarter
Jan 30
New
Feb 6
First Quarter

Hourly Weather History & Observations

Time (EST) Temp. Heat Index Dew Point Humidity Pressure Visibility Wind Dir Wind Speed Gust Speed Precip Events Conditions
12:27 AM 64.9 °F - 63.0 °F 93% 30.08 in 1.8 mi SSE 4.6 mph - N/A   Clear
12:49 AM 66.2 °F - 62.6 °F 88% 30.07 in 3.0 mi SSE 5.8 mph - N/A   Clear
12:53 AM 66.0 °F - 64.0 °F 93% 30.07 in 7.0 mi SSE 5.8 mph - N/A   Clear
1:53 AM 66.9 °F - 64.0 °F 90% 30.07 in 10.0 mi South 5.8 mph - N/A   Clear
2:53 AM 68.0 °F - 64.9 °F 90% 30.05 in 10.0 mi South 6.9 mph - N/A   Clear
3:53 AM 66.9 °F - 64.9 °F 93% 30.04 in 8.0 mi South 5.8 mph - N/A   Clear
4:53 AM 66.9 °F - 64.0 °F 90% 30.01 in 7.0 mi South 3.5 mph - N/A   Partly Cloudy
5:11 AM 66.9 °F - 64.0 °F 90% 30.02 in 7.0 mi South 4.6 mph - N/A   Mostly Cloudy
5:20 AM 68.0 °F - 64.9 °F 90% 30.01 in 7.0 mi South 5.8 mph - N/A   Mostly Cloudy
5:43 AM 68.0 °F - 66.0 °F 93% 30.01 in 4.0 mi South 5.8 mph - N/A   Overcast
5:53 AM 69.1 °F - 66.0 °F 90% 30.01 in 5.0 mi South 8.1 mph - N/A   Overcast
6:06 AM 70.0 °F - 66.9 °F 90% 30.01 in 7.0 mi SSW 10.4 mph - N/A   Overcast
6:40 AM 70.0 °F - 66.9 °F 90% 30.01 in 10.0 mi SSW 10.4 mph - N/A   Overcast
6:53 AM 70.0 °F - 66.9 °F 90% 30.01 in 10.0 mi South 9.2 mph - N/A   Overcast
7:53 AM 71.1 °F - 68.0 °F 90% 30.01 in 9.0 mi SSW 11.5 mph - N/A   Overcast
8:53 AM 71.1 °F - 68.0 °F 90% 30.02 in 10.0 mi SSW 9.2 mph - N/A   Overcast
9:53 AM 72.0 °F - 68.0 °F 87% 30.03 in 10.0 mi SSW 12.7 mph - N/A   Overcast
10:53 AM 75.0 °F - 68.0 °F 79% 30.01 in 10.0 mi SSW 13.8 mph 25.3 mph N/A   Overcast
11:06 AM 75.0 °F - 68.0 °F 79% 30.00 in 10.0 mi SSW 13.8 mph 23.0 mph N/A   Mostly Cloudy
11:53 AM 77.0 °F - 68.0 °F 74% 29.96 in 10.0 mi SW 19.6 mph 25.3 mph N/A   Overcast
12:53 PM 78.1 °F - 66.9 °F 68% 29.90 in 10.0 mi SSW 15.0 mph 25.3 mph N/A   Mostly Cloudy
1:53 PM 81.0 °F 83.3 °F 66.9 °F 62% 29.86 in 10.0 mi SW 24.2 mph 29.9 mph N/A   Scattered Clouds
2:53 PM 81.0 °F 82.7 °F 64.9 °F 58% 29.83 in 10.0 mi SW 25.3 mph 32.2 mph N/A   Partly Cloudy
3:53 PM 80.1 °F 81.9 °F 64.9 °F 60% 29.82 in 10.0 mi SSW 20.7 mph 35.7 mph N/A Thunderstorm Mostly Cloudy
4:21 PM 79.0 °F - 64.0 °F 60% 29.84 in 10.0 mi SW 23.0 mph 32.2 mph N/A   Overcast
4:53 PM 75.9 °F - 66.0 °F 71% 29.88 in 10.0 mi West 11.5 mph 25.3 mph 0.01 in   Overcast
5:07 PM 70.0 °F - 62.1 °F 76% 29.88 in 10.0 mi WNW 24.2 mph 34.5 mph 0.00 in Rain , Thunderstorm Light Rain
5:14 PM 69.1 °F - 61.0 °F 75% 29.89 in 10.0 mi WNW 21.9 mph 32.2 mph 0.00 in Rain , Thunderstorm Light Thunderstorms and Rain
5:32 PM 66.9 °F - 63.0 °F 87% 29.90 in 1.8 mi West 15.0 mph 34.5 mph 0.17 in Rain , Thunderstorm Heavy Thunderstorms and Rain
5:44 PM 66.0 °F - 63.0 °F 90% 29.87 in 1.2 mi West 12.7 mph 19.6 mph 0.48 in Rain , Thunderstorm Heavy Thunderstorms and Rain
5:53 PM 66.0 °F - 63.0 °F 90% 29.90 in 1.5 mi WSW 18.4 mph 25.3 mph 0.64 in Rain , Thunderstorm Heavy Thunderstorms and Rain
6:00 PM 66.9 °F - 63.0 °F 87% 29.91 in 3.0 mi WSW 19.6 mph 26.5 mph 0.02 in Rain , Thunderstorm Thunderstorms and Rain
6:16 PM 66.9 °F - 63.0 °F 87% 29.90 in 5.0 mi WSW 13.8 mph 21.9 mph 0.08 in Rain , Thunderstorm Heavy Thunderstorms and Rain
6:32 PM 66.9 °F - 63.0 °F 87% 29.88 in 8.0 mi WSW 10.4 mph - 0.11 in Rain , Thunderstorm Rain
6:40 PM 66.9 °F - 63.0 °F 87% 29.88 in 9.0 mi WSW 11.5 mph - 0.12 in Rain Light Rain
6:53 PM 66.9 °F - 63.0 °F 87% 29.89 in 10.0 mi WSW 11.5 mph - 0.12 in Rain Light Rain
7:53 PM 66.9 °F - 63.0 °F 87% 29.88 in 10.0 mi SW 13.8 mph - 0.00 in   Partly Cloudy
8:53 PM 66.0 °F - 62.1 °F 87% 29.90 in 10.0 mi WSW 11.5 mph - N/A   Partly Cloudy
9:05 PM 66.0 °F - 62.1 °F 87% 29.89 in 10.0 mi WSW 11.5 mph - N/A   Mostly Cloudy
9:53 PM 66.0 °F - 61.0 °F 84% 29.90 in 10.0 mi WSW 12.7 mph 23.0 mph N/A   Overcast
10:53 PM 66.0 °F - 61.0 °F 84% 29.92 in 10.0 mi WSW 12.7 mph - N/A   Mostly Cloudy
11:10 PM 64.9 °F - 60.1 °F 84% 29.92 in 10.0 mi WSW 13.8 mph - N/A   Scattered Clouds
11:32 PM 64.9 °F - 60.1 °F 84% 29.94 in 10.0 mi West 9.2 mph - N/A   Mostly Cloudy
11:53 PM 66.0 °F - 60.1 °F 81% 29.95 in 10.0 mi WSW 11.5 mph - N/A   Overcast